Weather in Savgachevo

Russia / Republic of Tatarstan     54°59′51″N   50°46′22″E
temp.,
°C
wind,
m/s
gust,
m/s
humid.,
%
clouds,
%
prec.,
mm/h
press.,
hPa
HPBL,
m
8 may, sat
sat800:00+11w3674100 0.0 1016104
03:00+10nw1181100 0.0 101611
06:00+11wnw0088100 0.3 101727
09:00+14wsw676998 1.3 1017681
12:00+17sw46548 0.1 10161383
15:00+18ssw244777 0.4 10161892
18:00+16sse226643 0.1 101525
21:00+12se347069 0.1 101663
9 may, sun
sun900:00+11se410735 0.0 1015160
03:00+10se4117866 0.0 1015195
06:00+12sse512735 0.0 1015339
09:00+18sse695541 0.0 1014655
12:00+21s794641 0.0 10141713
15:00+22s584661 0.0 10132330
18:00+19sse3460100 0.0 101488
21:00+15se466765 0.0 101480
10 may, mon
mon1000:00+15sse4116291 0.0 1014249
03:00+14ese2273100 0.0 101621
06:00+14se1173100 0.2 101817
09:00+18nw1160100 0.2 1019549
12:00+20nnw2255100 0.0 10201063
15:00+18nnw7772100 0.1 1022574
18:00+14n71080100 0.9 1024456
21:00+11nne61186100 0.9 1026382
11 may, tue
tue1100:00+9nne61189100 0.0 1026356
03:00+8nne51191100 0.0 1028338
06:00+9ne698581 0.0 1029328
09:00+14ne5771100 0.0 1029583
12:00+17ne5660100 0.0 1029896
15:00+18ne5551100 0.0 1029982
18:00+15ne4855100 0.0 1030249
21:00+12ne41160100 0.0 1030197
12 may, wed
wed1200:00+10ene4960100 0.0 1031151
03:00+9ene49655 0.0 1031147
06:00+11ene49655 0.0 1031243
09:00+16e57455 0.0 1031709
12:00+20e56375 0.0 10301128
15:00+21e45355 0.0 10291272
18:00+18ene37570 0.0 1029157
21:00+14e48710 0.0 1029123